sat.trackr.live / text

‹ back to catalog

STARLINK-30795

NORAD 58118 · 2023-162A

PAYLOAD ACTIVE UNKNOWN

§ Identity

Operator
Country
US
Launch date
2023-10-22
Launch site
AFETR
Launch vehicle
Mass (kg)
RCS (m²)

Purposes: comms

External: N2YO · Heavens-Above · Gunter

§ Orbital elements

Epoch: 2026-09-20T21:07:56.029440Z

Period
94.27 min
Inclination
43.0027°
Eccentricity
0.0001131
Mean motion
15.27564975 rev/d
Perigee alt
482.3 km
Apogee alt
483.9 km
Semi-major
6,861.2 km
B*
-6.8916e-5
RAAN
109.7667°
Arg perigee
268.4959°
Mean anomaly
91.5763°
Rev number
16,216

§ Raw data

STARLINK-307951 58118U 23162A   26263.88050960 -.00002157  00000+0 -68916-4 0  99922 58118  43.0027 109.7667 0001131 268.4959  91.5763 15.27564975162164

JSON: /api/v1/satellites/58118 · /tle

For live sub-satellite position, see the globe view (requires WebGL).

§ Visibility from observer

Set your observer location to see the next 7 days of passes ≥ 10°. The values pass through the URL so the page stays shareable.

No JS? Fill the form by hand. The geolocation button needs JavaScript.